This demonstration page uses our WeatherBlox Daily Observations layout. Learn more.

Left ArrowRight Arrow

39.92423, -83.80882

Hourly Observations for January 31, 2020

Temp ( °F °C ) Dew Point ( °F °C ) Humidity (%) Winds ( mph kmh ) Pressure ( in mb ) Visibility ( mi km ) Precip ( " mm )
12:56 am 00:56 Cloudy 30 -1.1 27 -2.8 88 88 ESE 7 11 30.24 1024 10 16.0934 0 0
1:56 am 01:56 Cloudy 30 -1.1 27 -2.8 88 88 ESE 7 11 30.22 1024 10 16.0934 0 0
2:56 am 02:56 Partly Cloudy 29 -1.7 26 -3.3 89 89 E 5 7 30.22 1023 10 16.0934 0 0
3:56 am 03:56 Cloudy 29 -1.7 27 -2.8 92 92 ESE 6 9 30.22 1023 10 16.0934 0 0
4:56 am 04:56 Cloudy 29 -1.7 27 -2.8 92 92 E 5 7 30.22 1023 10 16.0934 0 0
5:56 am 05:56 Cloudy 30 -1.1 27 -2.8 88 88 E 7 11 30.2 1023 10 16.0934 0 0
6:56 am 06:56 Cloudy 30 -1.1 27 -2.8 88 88 ENE 5 7 30.2 1023 10 16.0934 0 0
7:56 am 07:56 Cloudy 30 -1.1 27 -2.8 88 88 E 5 7 30.2 1023 10 16.0934 0 0
8:44 am 08:44 Cloudy with Light Snow 30 -1 28 -2 93 93 E 6 9 30.23 1024 1.75 2.816345 0.001 0.001
8:56 am 08:56 Cloudy with Light Snow 30 -1.1 28 -2.2 92 92 E 6 9 30.21 1023 1 1.60934 0.001 0.001
9:46 am 09:46 Cloudy with Light Snow 30 -1 28 -2 93 93 E 6 9 30.24 1024 1.25 2.011675 0.001 0.001
9:56 am 09:56 Cloudy with Light Snow 30 -1.1 30 -1.1 100 100 E 6 9 30.22 1023 1.25 2.011675 0.001 0.001
10:00 am 10:00 Cloudy with Light Snow 30 -1 30 -1 100 100 E 7 11 30.24 1024 1 1.60934 0.001 0.001
10:12 am 10:12 Cloudy with Light Snow 30 -1 30 -1 100 100 E 7 11 30.24 1024 0.75 1.207005 0.001 0.001
10:45 am 10:45 Cloudy with Light Snow 30 -1 30 -1 100 100 E 7 11 30.25 1024 0.75 1.207005 0.001 0.001
10:56 am 10:56 Cloudy with Light Snow 31 -0.6 31 -0.6 100 100 E 6 9 30.23 1024 1 1.60934 0.001 0.001
10:59 am 10:59 Cloudy with Light Snow 30 -1 30 -1 100 100 E 8 13 30.25 1024 1.25 2.011675 0.001 0.001
11:11 am 11:11 Cloudy with Light Snow 30 -1 30 -1 100 100 E 8 13 30.24 1024 0.75 1.207005 0.001 0.001
11:27 am 11:27 Cloudy with Light Snow 30 -1 30 -1 100 100 E 7 11 30.24 1024 1 1.60934 0.001 0.001
11:51 am 11:51 Cloudy with Light Snow 32 0 32 0 100 100 ENE 7 11 30.22 1023 1.25 2.011675 0.01 0.254
11:56 am 11:56 Cloudy with Light Snow 32 0 32 0 100 100 E 8 13 30.21 1023 1.5 2.41401 0.01 0.254
12:04 pm 12:04 Cloudy with Light Snow 32 0 32 0 100 100 ENE 7 11 30.22 1023 1.5 2.41401 0.001 0.001
12:32 pm 12:32 Cloudy with Light Snow 34 1 32 0 93 93 ENE 7 11 30.2 1023 1 1.60934 0.001 0.001
12:39 pm 12:39 Cloudy with Light Snow 34 1 34 1 100 100 E 7 11 30.2 1023 1.5 2.41401 0.001 0.001
12:50 pm 12:50 Cloudy with Light Snow 34 1 34 1 100 100 E 7 11 30.2 1023 3 4.82802 0.001 0.001
12:51 pm 12:51 Cloudy with Light Snow 33 0.6 33 0.6 100 100 E 7 11 30.19 1022 3 4.82802 0.001 0.001
1:15 pm 13:15 Cloudy with Light Snow 34 1 34 1 100 100 E 7 11 30.19 1022 2 3.21868 0.001 0.001
1:35 pm 13:35 Cloudy with Light Snow 34 1 34 1 100 100 E 6 9 30.18 1022 1.75 2.816345 0.17 4.318
1:56 pm 13:56 Cloudy with Light Snow 33 0.6 33 0.6 100 100 E 5 7 30.16 1021 1.75 2.816345 3.14 79.756
2:26 pm 14:26 Cloudy with Light Snow 34 1 34 1 100 100 E 6 9 30.16 1021 2 3.21868 0.15 3.81
2:56 pm 14:56 Cloudy with Light Snow 34 1.1 33 0.6 97 97 E 3 6 30.15 1021 2.5 4.02335 0.15 3.81
3:03 pm 15:03 Cloudy with Light Snow 34 1 34 1 100 100 E 6 9 30.16 1021 3 4.82802 0.001 0.001
3:56 pm 15:56 Cloudy with Mist and Fog 35 1.7 34 1.1 96 96 ENE 3 6 30.14 1021 5 8.0467 0.001 0.001
4:56 pm 16:56 Cloudy with Light Rain 34 1.1 34 1.1 100 100 Calm 30.15 1021 7 11.26538 0.001 0.001
5:56 pm 17:56 Cloudy 34 1.1 34 1.1 100 100 NNE 5 7 30.16 1021 10 16.0934 0.001 0.001
6:04 pm 18:04 Cloudy 34 1 34 1 100 100 NE 5 7 30.17 1022 9 14.48406 0 0
6:56 pm 18:56 Cloudy 34 1.1 34 1.1 100 100 NE 6 9 30.16 1021 8 12.87472 0 0
7:56 pm 19:56 Cloudy with Mist and Fog 33 0.6 33 0.6 100 100 NE 5 7 30.17 1022 6 9.65604 0 0
8:56 pm 20:56 Cloudy with Mist and Fog 33 0.6 33 0.6 100 100 ENE 3 6 30.16 1021 4 6.43736 0 0
9:56 pm 21:56 Cloudy with Mist and Fog 33 0.6 33 0.6 100 100 NE 5 7 30.15 1021 4 6.43736 0 0
10:05 pm 22:05 Cloudy with Mist and Fog 34 1 34 1 100 100 NE 5 7 30.16 1021 3 4.82802 0 0
10:56 pm 22:56 Cloudy with Mist and Fog 32 0 32 0 100 100 NE 6 9 30.14 1021 5 8.0467 0 0
11:22 pm 23:22 Cloudy with Mist and Fog 32 0 32 0 100 100 NE 5 7 30.15 1021 4 6.43736 0 0
11:56 pm 23:56 Cloudy with Mist and Fog 32 0 32 0 100 100 NE 6 9 30.13 1020 5 8.0467 0 0

Powered by AerisWeather